{"data":{"norad_id":55805,"intl_designator":"2023-029K","name":"ONEWEB-0641","alt_names":[],"object_type":"PAYLOAD","status":"ACTIVE","operator":null,"country":"UK","launch_date":"2023-03-09","launch_site_code":"AFETR","launch_vehicle":null,"mission":null,"orbit_class":"UNKNOWN","rcs_meters":null,"size_class":null,"mass_kg":null,"dimensions":null,"purposes":["comms"],"wikipedia_slug":null,"has_3d_model":false,"image_url":null,"decayed_at":null,"tle_current":{"epoch":"2026-05-24T23:29:34.414656Z","epoch_age_seconds":67154,"freshness":"FRESH","line1":"1 55805U 23029K   26144.97887054 -.00000020  00000+0 -82095-4 0  9995","line2":"2 55805  87.9156 309.5906 0001632  92.6159 267.5161 13.19726448155854","mean_motion":13.19726448,"eccentricity":0.0001632,"inclination_deg":87.9156,"raan_deg":309.5906,"arg_perigee_deg":92.6159,"mean_anomaly_deg":267.5161,"bstar":-8.2095e-5,"rev_number":15585,"period_min":109.1135213803,"perigee_km":1184.5305904557,"apogee_km":1186.9994480748,"semimajor_km":7563.9020192653,"source":"CELESTRAK","updated_at":"2026-05-25T13:38:22.690762Z"}}}